Zurück zum Katalog

STARLINK-5913

AktivKommunikationVLEO
NORAD 55937·PAYLOAD·🇺🇸 United States

Gestartet Mar 17, 2023 von Vandenberg Space Force Base

Loading…

Nächste Überflüge (nächste 24 Stunden)

TLE

AktuellSource: CelesTrak SupGP

Epoche: Sep 14, 2026, 13:35 UTC

1 55937C 23037Z   26257.56645833  .00389340  00000+0  31923-1 0  2578
2 55937  70.0005 168.2738 0003070 270.5832 355.8038 14.98977369    11

Verfolge STARLINK-5913 in Echtzeit mit AllMySat

Download on the App Store